"TOA5","MOW","CPU:UNC_MeetingWaters","DataHourly"
"TIMESTAMP","SondeTempC","SpCond","DOSat","DOmg","pH","Turb","BattVolt_Min"
"TS","","","","","","",""
"","Smp","Smp","Smp","Smp","Smp","Smp","Min"
"2002-10-01 00:00:00",20.2700004578,0.00800000037998,93.8000030518,8.47999954224,7.76000022888,1.39999997616,12.5600004196
"2002-10-01 01:00:00",20.2000007629,0.00600000005215,94.0,8.51000022888,7.73000001907,1.0,12.5500001907
"2002-10-01 02:00:00",20.1399993896,0.00600000005215,92.4000015259,8.38000011444,7.76000022888,0.899999976158,12.5399999619
"2002-10-01 03:00:00",20.1100006104,0.00499999988824,93.3000030518,8.47000026703,7.76999998093,0.800000011921,12.5200004578
"2002-10-01 04:00:00",20.1200008392,0.00400000018999,91.9000015259,8.34000015259,7.80000019073,0.699999988079,12.5100002289
"2002-10-01 05:00:00",20.0799999237,0.00499999988824,91.0999984741,8.27999973297,7.80000019073,0.699999988079,12.5
"2002-10-01 06:00:00",19.9899997711,0.00499999988824,93.4000015259,8.5,7.82999992371,0.699999988079,12.4799995422
"2002-10-01 07:00:00",19.8600006104,0.00400000018999,93.0,8.47999954224,7.84000015259,0.899999976158,12.470000267
"2002-10-01 08:00:00",19.8799991608,0.00499999988824,94.5,8.60999965668,7.84999990463,0.800000011921,12.4499998093
"2002-10-01 09:00:00",19.9599990845,0.238000005484,99.1999969482,9.02000045776,7.84999990463,1.60000002384,12.4899997711
"2002-10-01 10:00:00",20.2399997711,0.221000000834,103.800003052,9.39000034332,7.86000013351,2.79999995232,12.75
"2002-10-01 11:00:00",20.9699993134,0.00700000021607,112.199996948,10.0100002289,7.90999984741,3.5,13.1400003433
"2002-10-01 12:00:00",21.3899993896,0.00300000002608,109.5,9.68999958038,8.01000022888,3.29999995232,12.8599996567
"2002-10-01 13:00:00",21.7800006866,0.00300000002608,121.699996948,10.6899995804,8.06000041962,4.0,13.0799999237
"2002-10-01 14:00:00",22.6100006104,0.00400000018999,127.5,11.0200004578,8.18000030518,3.59999990463,13.0699996948
"2002-10-01 15:00:00",22.6200008392,0.00499999988824,113.800003052,9.82999992371,8.06000041962,3.5,13.0500001907
"2002-10-01 16:00:00",22.6800003052,0.00400000018999,113.5,9.80000019073,8.11999988556,3.40000009537,13.0500001907
"2002-10-01 17:00:00",22.5599994659,0.00300000002608,105.900001526,9.15999984741,8.18000030518,3.5,12.7299995422
"2002-10-01 18:00:00",22.2900009155,0.00400000018999,98.0999984741,8.52999973297,8.05000019073,3.29999995232,12.6499996185
"2002-10-01 19:00:00",21.9200000763,0.00400000018999,91.6999969482,8.02999973297,7.86999988556,2.09999990463,12.6300001144
"2002-10-01 20:00:00",21.6399993896,0.22499999404,97.5999984741,8.59000015259,7.86999988556,2.40000009537,12.6099996567
"2002-10-01 21:00:00",21.4799995422,0.0560000017285,95.5999984741,8.44999980927,7.80999994278,2.90000009537,12.5900001526
"2002-10-01 22:00:00",21.2999992371,0.00400000018999,91.3000030518,8.09000015259,7.78999996185,2.90000009537,12.5799999237
"2002-10-01 23:00:00",21.1700000763,0.00400000018999,89.3000030518,7.94000005722,7.78000020981,2.59999990463,12.5699996948
"2002-10-02 00:00:00",21.0200004578,0.00400000018999,86.0999984741,7.67000007629,7.73000001907,2.59999990463,12.5500001907
"2002-10-02 01:00:00",20.8299999237,0.00400000018999,86.3000030518,7.71999979019,7.75,2.59999990463,12.5399999619
"2002-10-02 02:00:00",20.7099990845,0.00400000018999,86.0,7.71999979019,7.73999977112,3.29999995232,12.529999733
"2002-10-02 03:00:00",20.4400005341,0.00400000018999,86.9000015259,7.82999992371,7.71999979019,2.70000004768,12.5200004578
"2002-10-02 04:00:00",20.2800006866,0.00400000018999,82.0999984741,7.42000007629,7.71000003815,3.0,12.5
"2002-10-02 05:00:00",20.3099994659,0.00499999988824,86.4000015259,7.80999994278,7.67999982834,3.20000004768,12.4899997711
"2002-10-02 06:00:00",20.2299995422,0.0109999999404,95.6999969482,8.65999984741,7.78000020981,2.90000009537,12.470000267
"2002-10-02 07:00:00",20.1100006104,0.00400000018999,94.5,8.57999992371,7.78999996185,2.29999995232,12.4499998093
"2002-10-02 08:00:00",19.8799991608,0.00400000018999,87.1999969482,7.94999980927,7.75,2.09999990463,12.4399995804
"2002-10-02 09:00:00",20.0499992371,0.00400000018999,96.8000030518,8.80000019073,7.84000015259,1.89999997616,12.5399999619
"2002-10-02 10:00:00",20.6200008392,0.00400000018999,97.0,8.71000003815,7.78000020981,1.60000002384,13.1999998093
"2002-10-02 11:00:00",22.6299991608,0.00400000018999,118.300003052,10.220000267,8.03999996185,1.39999997616,13.1000003815
"2002-10-02 12:00:00",21.75,0.00499999988824,116.099998474,10.1999998093,7.90999984741,1.5,12.8900003433
"2002-10-02 13:00:00",22.4899997711,0.00499999988824,120.199996948,10.4099998474,7.94000005722,1.79999995232,13.0500001907
"2002-10-02 14:00:00",23.0100002289,0.00400000018999,125.099998474,10.7299995422,8.10000038147,1.39999997616,12.779999733
"2002-10-02 15:00:00",22.9300003052,0.00400000018999,113.400001526,9.73999977112,7.92000007629,1.29999995232,12.6999998093
"2002-10-02 16:00:00",22.7999992371,0.00400000018999,107.099998474,9.22999954224,7.90999984741,1.0,12.6599998474
"2002-10-02 17:00:00",22.9500007629,0.00400000018999,106.5,9.14000034332,7.82999992371,0.899999976158,12.6899995804
"2002-10-02 18:00:00",22.6299991608,0.00400000018999,103.699996948,8.96000003815,7.86999988556,0.800000011921,12.6199998856
"2002-10-02 19:00:00",22.2000007629,0.00899999961257,95.9000015259,8.35000038147,7.80999994278,0.699999988079,12.6099996567
"2002-10-02 20:00:00",21.9599990845,0.194999992847,98.6999969482,8.63000011444,7.78000020981,1.29999995232,12.6099996567
"2002-10-02 21:00:00",21.8700008392,0.193000003695,98.5999984741,8.64000034332,7.78000020981,1.5,12.5900001526
"2002-10-02 22:00:00",21.7900009155,0.00499999988824,95.4000015259,8.38000011444,7.76000022888,1.29999995232,12.5799999237
"2002-10-02 23:00:00",21.7099990845,0.00400000018999,90.5999984741,7.96999979019,7.75,1.29999995232,12.5699996948
"2002-10-03 00:00:00",21.6000003815,0.00400000018999,84.6999969482,7.46999979019,7.73000001907,1.29999995232,12.5500001907
"2002-10-03 01:00:00",21.5799999237,0.00499999988824,90.8000030518,8.0,7.71999979019,1.20000004768,12.529999733
"2002-10-03 02:00:00",21.4899997711,0.00400000018999,89.9000015259,7.94000005722,7.73999977112,0.899999976158,12.529999733
"2002-10-03 03:00:00",21.3600006104,0.00400000018999,83.0,7.34999990463,7.73000001907,0.899999976158,12.5100002289
"2002-10-03 04:00:00",21.3600006104,0.127000004053,95.3000030518,8.43999958038,7.76999998093,1.0,12.4899997711
"2002-10-03 05:00:00",21.2700004578,0.00999999977648,95.5999984741,8.47999954224,7.78000020981,1.0,12.470000267
"2002-10-03 06:00:00",21.1000003815,0.00400000018999,93.3000030518,8.30000019073,7.78999996185,1.0,12.4499998093
"2002-10-03 07:00:00",20.9699993134,0.00400000018999,89.9000015259,8.02000045776,7.73000001907,0.899999976158,12.4399995804
"2002-10-03 08:00:00",20.9200000763,0.00400000018999,82.4000015259,7.36000013351,7.71999979019,0.600000023842,12.4399995804
"2002-10-03 09:00:00",21.0499992371,0.00400000018999,90.5999984741,8.06999969482,7.76999998093,0.800000011921,12.4499998093
"2002-10-03 10:00:00",21.8400001526,0.00400000018999,100.400001526,8.81000041962,7.78999996185,0.600000023842,13.1000003815
"2002-10-03 11:00:00",22.9799995422,0.00400000018999,114.900001526,9.85999965668,7.98999977112,0.699999988079,13.0900001526
"2002-10-03 12:00:00",22.8899993896,0.00400000018999,112.599998474,9.68000030518,7.92999982834,0.699999988079,12.9899997711
"2002-10-03 13:00:00",23.1299991608,0.00400000018999,129.699996948,11.1000003815,8.14000034332,0.699999988079,13.029999733
"2002-10-03 14:00:00",23.8899993896,0.00499999988824,135.199996948,11.4099998474,8.31000041962,0.600000023842,12.7299995422
"2002-10-03 15:00:00",23.7299995422,0.00499999988824,117.300003052,9.92000007629,8.10999965668,0.800000011921,12.720000267
"2002-10-03 16:00:00",23.25,0.225999996066,110.5,9.43000030518,8.06999969482,1.10000002384,13.0100002289
"2002-10-03 17:00:00",22.9099998474,0.206000000238,103.699996948,8.90999984741,7.92000007629,1.79999995232,12.6899995804
"2002-10-03 18:00:00",22.8299999237,0.190999999642,100.199996948,8.61999988556,7.86000013351,1.70000004768,12.6300001144
"2002-10-03 19:00:00",22.7299995422,0.187000006437,96.9000015259,8.35000038147,7.80000019073,2.0,12.6099996567
"2002-10-03 20:00:00",22.6100006104,0.00499999988824,91.5,7.90999984741,7.78000020981,1.89999997616,12.6099996567
"2002-10-03 21:00:00",22.4599990845,0.00400000018999,84.9000015259,7.36000013351,7.71000003815,1.70000004768,12.5900001526
"2002-10-03 22:00:00",22.3400001526,0.00400000018999,80.3000030518,6.98000001907,7.73000001907,1.5,12.5699996948
"2002-10-03 23:00:00",22.1800003052,0.00400000018999,74.9000015259,6.53000020981,7.69000005722,1.29999995232,12.5699996948
"2002-10-04 00:00:00",22.0799999237,0.00700000021607,85.0999984741,7.42999982834,7.69000005722,1.29999995232,12.5600004196
"2002-10-04 01:00:00",22.0200004578,0.224000006914,93.5999984741,8.17000007629,7.76000022888,1.39999997616,12.5399999619
"2002-10-04 02:00:00",21.8999996185,0.0520000010729,94.3000030518,8.26000022888,7.75,1.60000002384,12.529999733
"2002-10-04 03:00:00",21.6900005341,0.00499999988824,89.5999984741,7.88000011444,7.73999977112,1.79999995232,12.5100002289
"2002-10-04 04:00:00",21.5799999237,0.00400000018999,86.8000030518,7.65000009537,7.73999977112,1.70000004768,12.5
"2002-10-04 05:00:00",21.4300003052,0.00400000018999,83.1999969482,7.36000013351,7.69999980927,1.5,12.470000267
"2002-10-04 06:00:00",21.3099994659,0.00400000018999,81.0999984741,7.19000005722,7.67999982834,1.39999997616,12.470000267
"2002-10-04 07:00:00",21.2000007629,0.00400000018999,77.3000030518,6.86999988556,7.61000013351,1.29999995232,12.4499998093
"2002-10-04 08:00:00",21.1000003815,0.00400000018999,73.6999969482,6.55999994278,7.63999986649,1.20000004768,12.4300003052
"2002-10-04 09:00:00",21.1800003052,0.070000000298,96.5,8.56999969482,7.73999977112,1.29999995232,12.470000267
"2002-10-04 10:00:00",21.4099998474,0.00899999961257,100.599998474,8.89999961853,7.82000017166,1.20000004768,12.9200000763
"2002-10-04 11:00:00",22.3600006104,0.00800000037998,113.400001526,9.85000038147,7.94999980927,1.20000004768,13.1000003815
"2002-10-04 12:00:00",22.5100002289,0.00600000005215,109.300003052,9.46000003815,7.94000005722,1.10000002384,13.0100002289
"2002-10-04 13:00:00",22.9599990845,0.00899999961257,114.199996948,9.80000019073,8.05000019073,1.0,12.7700004578
"2002-10-04 14:00:00",23.8500003815,0.00600000005215,120.599998474,10.1800003052,8.10000038147,0.800000011921,13.0
"2002-10-04 15:00:00",23.8299999237,0.00600000005215,123.0,10.3900003433,8.13000011444,1.10000002384,12.9799995422
"2002-10-04 16:00:00",23.7299995422,0.00499999988824,114.599998474,9.69999980927,8.14999961853,0.800000011921,12.9799995422
"2002-10-04 17:00:00",23.7600002289,0.00400000018999,114.400001526,9.67000007629,8.10999965668,1.60000002384,12.7299995422
"2002-10-04 18:00:00",23.6900005341,0.00400000018999,100.599998474,8.52000045776,7.96999979019,1.0,12.6700000763
"2002-10-04 19:00:00",23.1900005341,0.00700000021607,93.8000030518,8.02000045776,7.86999988556,1.0,12.6300001144
"2002-10-04 20:00:00",22.9599990845,0.0230000000447,91.8000030518,7.88000011444,7.80000019073,1.39999997616,12.6099996567
"2002-10-04 21:00:00",22.7999992371,0.150999993086,76.4000015259,6.57999992371,7.73999977112,1.5,12.6000003815
"2002-10-04 22:00:00",22.6700000763,0.00499999988824,84.4000015259,7.28000020981,7.69999980927,1.60000002384,12.5900001526
"2002-10-04 23:00:00",22.5300006866,0.00400000018999,67.4000015259,5.82999992371,7.65000009537,1.29999995232,12.5699996948
"2002-10-05 00:00:00",22.4599990845,0.00400000018999,71.4000015259,6.19000005722,7.65000009537,1.10000002384,12.5799999237
"2002-10-05 01:00:00",22.4799995422,0.00499999988824,81.9000015259,7.09000015259,7.65000009537,1.10000002384,12.5699996948
"2002-10-05 02:00:00",22.4400005341,0.00400000018999,78.8000030518,6.82999992371,7.61999988556,1.39999997616,12.5500001907
"2002-10-05 03:00:00",22.4200000763,0.00499999988824,74.5,6.46999979019,7.53999996185,0.699999988079,12.5399999619
"2002-10-05 04:00:00",22.3400001526,0.0120000001043,91.0999984741,7.92000007629,7.61999988556,0.699999988079,12.529999733
"2002-10-05 05:00:00",22.2199993134,0.00600000005215,84.9000015259,7.38999986649,7.65000009537,0.5,12.5100002289
"2002-10-05 06:00:00",22.0599994659,0.00400000018999,84.6999969482,7.40000009537,7.67000007629,0.600000023842,12.4899997711
"2002-10-05 07:00:00",21.9099998474,0.00400000018999,87.1999969482,7.63000011444,7.65000009537,0.800000011921,12.4600000381
"2002-10-05 08:00:00",21.7299995422,0.00400000018999,81.1999969482,7.13999986649,7.65000009537,0.699999988079,12.4499998093
"2002-10-05 09:00:00",21.7999992371,0.00400000018999,74.0999984741,6.51000022888,7.61000013351,1.20000004768,12.4499998093
"2002-10-05 10:00:00",22.2999992371,0.00400000018999,92.1999969482,8.02000045776,7.67999982834,0.800000011921,12.779999733
"2002-10-05 11:00:00",24.0400009155,0.00400000018999,113.0,9.51000022888,7.94000005722,0.699999988079,13.0699996948
"2002-10-05 12:00:00",23.2700004578,0.00499999988824,100.400001526,8.56999969482,7.73000001907,0.699999988079,13.029999733
"2002-10-05 13:00:00",23.6900005341,0.00600000005215,133.100006104,11.2700004578,8.11999988556,0.699999988079,13.0100002289
"2002-10-05 14:00:00",24.4400005341,0.00400000018999,140.399993896,11.720000267,8.27000045776,1.10000002384,13.0
"2002-10-05 15:00:00",24.75,0.00300000002608,134.100006104,11.1400003433,8.48999977112,0.800000011921,12.9799995422
"2002-10-05 16:00:00",24.8099994659,0.00400000018999,121.900001526,10.1099996567,8.22999954224,0.699999988079,12.9499998093
"2002-10-05 17:00:00",24.3199996948,0.00400000018999,112.0,9.36999988556,8.05000019073,0.800000011921,12.6999998093
"2002-10-05 18:00:00",24.0400009155,0.00499999988824,98.6999969482,8.30000019073,7.94000005722,0.899999976158,12.6499996185
"2002-10-05 19:00:00",23.6100006104,0.00600000005215,94.4000015259,8.01000022888,7.78000020981,0.699999988079,12.6199998856
"2002-10-05 20:00:00",23.2299995422,0.00600000005215,85.1999969482,7.28000020981,7.78000020981,1.10000002384,12.6000003815
"2002-10-05 21:00:00",22.9799995422,0.00800000037998,89.9000015259,7.71000003815,7.78999996185,0.800000011921,12.5900001526
"2002-10-05 22:00:00",22.7600002289,0.00700000021607,89.4000015259,7.71000003815,7.80000019073,0.800000011921,12.5699996948
"2002-10-05 23:00:00",22.6299991608,0.00600000005215,84.3000030518,7.28000020981,7.75,0.899999976158,12.5699996948
"2002-10-06 00:00:00",22.2199993134,0.00499999988824,84.5999984741,7.36000013351,7.69000005722,0.899999976158,12.5500001907
"2002-10-06 01:00:00",21.8299999237,0.00499999988824,76.6999969482,6.73000001907,7.59999990463,0.800000011921,12.529999733
"2002-10-06 02:00:00",21.6499996185,0.00499999988824,73.5,6.46999979019,7.63999986649,0.699999988079,12.5200004578
"2002-10-06 03:00:00",21.3899993896,0.00499999988824,74.4000015259,6.57999992371,7.63000011444,0.800000011921,12.5
"2002-10-06 04:00:00",20.6800003052,0.00400000018999,67.8000030518,6.07999992371,7.69999980927,1.20000004768,12.4899997711
"2002-10-06 05:00:00",21.0599994659,0.00499999988824,81.3000030518,7.23999977112,7.69999980927,0.800000011921,12.470000267
"2002-10-06 06:00:00",20.7900009155,0.00499999988824,92.4000015259,8.27000045776,7.78999996185,0.800000011921,12.4499998093
"2002-10-06 07:00:00",20.5100002289,0.00400000018999,88.0999984741,7.92999982834,7.76000022888,0.800000011921,12.4200000763
"2002-10-06 08:00:00",18.8500003815,0.00400000018999,83.3000030518,7.75,7.86999988556,0.800000011921,12.3999996185
"2002-10-06 09:00:00",16.9699993134,0.00300000002608,87.5999984741,8.47000026703,8.10999965668,0.699999988079,12.4200000763
"2002-10-06 10:00:00",17.5799999237,0.00300000002608,82.0,7.82999992371,7.94999980927,0.800000011921,12.779999733
"2002-10-06 11:00:00",20.4599990845,0.0010000000475,142.300003052,12.8199996948,7.80000019073,1.10000002384,13.2100000381
"2002-10-06 12:00:00",19.9799995422,0.0,105.099998474,9.56000041962,7.71000003815,0.699999988079,13.1899995804
"2002-10-06 13:00:00",20.8799991608,0.0,146.0,13.0399999619,7.26999998093,0.899999976158,13.1899995804
"2002-10-06 14:00:00",22.4099998474,0.0,133.0,11.5399999619,7.01000022888,0.899999976158,13.1599998474
"2002-10-06 15:00:00",23.3299999237,0.0,132.5,11.2899999619,7.11999988556,0.899999976158,13.1000003815
"2002-10-06 16:00:00",22.0100002289,0.0,123.800003052,10.8199996948,8.28999996185,0.899999976158,13.0900001526
"2002-10-06 17:00:00",21.8500003815,0.0,112.099998474,9.82999992371,8.10000038147,0.899999976158,12.7399997711
"2002-10-06 18:00:00",21.7000007629,0.0,106.400001526,9.35999965668,8.34000015259,1.0,12.6700000763
"2002-10-06 19:00:00",21.0200004578,0.0,93.5999984741,8.34000015259,7.98000001907,1.20000004768,12.6300001144
"2002-10-06 20:00:00",20.7999992371,0.0,84.3000030518,7.55000019073,7.94000005722,1.0,12.6099996567
"2002-10-06 21:00:00",20.4200000763,0.0,68.8000030518,6.21000003815,7.86999988556,0.899999976158,12.6000003815
"2002-10-06 22:00:00",20.0400009155,0.0,72.1999969482,6.55999994278,7.82000017166,1.0,12.5799999237
"2002-10-06 23:00:00",20.0100002289,0.0,74.3000030518,6.76000022888,7.80000019073,0.800000011921,12.5699996948
"2002-10-07 00:00:00",20.2700004578,0.0,60.0,5.42999982834,7.69999980927,1.0,12.5600004196
"2002-10-07 01:00:00",20.0499992371,0.0010000000475,55.7000007629,5.05999994278,7.67999982834,0.800000011921,12.5399999619
"2002-10-07 02:00:00",20.3299999237,0.0010000000475,77.5,7.0,7.71000003815,0.899999976158,12.5399999619
"2002-10-07 03:00:00",20.1800003052,0.0010000000475,85.4000015259,7.73000001907,7.73000001907,1.10000002384,12.5200004578
"2002-10-07 04:00:00",19.7000007629,0.0010000000475,77.9000015259,7.11999988556,7.67000007629,1.0,12.5
"2002-10-07 05:00:00",19.5,0.00200000009499,71.5999984741,6.57999992371,7.71000003815,1.70000004768,12.4899997711
"2002-10-07 06:00:00",19.1200008392,0.00200000009499,74.5,6.88999986649,8.10000038147,1.20000004768,12.4600000381
"2002-10-07 07:00:00",18.7000007629,0.00200000009499,69.6999969482,6.51000022888,8.03999996185,1.5,12.4499998093
"2002-10-07 08:00:00",18.8700008392,0.00200000009499,62.5,5.82000017166,7.88000011444,1.20000004768,12.4200000763
"2002-10-07 09:00:00",19.1200008392,0.00200000009499,60.4000015259,5.59000015259,7.76999998093,1.10000002384,12.4499998093
"2002-10-07 10:00:00",19.8199996948,0.00200000009499,91.8000030518,8.38000011444,7.63999986649,1.10000002384,13.0
"2002-10-07 11:00:00",20.3799991608,0.00200000009499,122.800003052,11.0799999237,8.36999988556,1.10000002384,13.1999998093
"2002-10-07 12:00:00",20.8099994659,0.00200000009499,129.5,11.5900001526,8.30000019073,1.10000002384,13.1599998474
"2002-10-07 13:00:00",21.5900001526,0.00200000009499,151.699996948,13.3699998856,8.71000003815,0.899999976158,13.1400003433
"2002-10-07 14:00:00",22.6499996185,0.0010000000475,144.100006104,12.4499998093,8.88000011444,1.29999995232,13.1000003815
"2002-10-07 15:00:00",22.4799995422,0.00200000009499,138.800003052,12.0200004578,8.86999988556,1.10000002384,13.0799999237
"2002-10-07 16:00:00",22.4200000763,0.00200000009499,134.699996948,11.6899995804,8.67000007629,3.90000009537,12.8800001144
"2002-10-07 17:00:00",22.3199996948,0.00200000009499,115.400001526,10.029999733,8.56999969482,2.29999995232,12.6999998093
"2002-10-07 18:00:00",21.8600006104,0.00200000009499,100.0,8.77000045776,8.47000026703,1.29999995232,12.6499996185
"2002-10-07 19:00:00",21.5300006866,0.00200000009499,87.4000015259,7.71000003815,8.39999961853,1.29999995232,12.6300001144
"2002-10-07 20:00:00",20.9699993134,0.00200000009499,86.9000015259,7.75,7.84999990463,1.39999997616,12.6199998856
"2002-10-07 21:00:00",20.9699993134,0.00200000009499,95.3000030518,8.5,7.90000009537,1.10000002384,12.6000003815
"2002-10-07 22:00:00",20.7600002289,0.00200000009499,96.8000030518,8.67000007629,7.88999986649,1.29999995232,12.5900001526
"2002-10-07 23:00:00",20.3400001526,0.00200000009499,92.1999969482,8.32999992371,7.84999990463,1.29999995232,12.5699996948
"2002-10-08 00:00:00",19.3400001526,0.00200000009499,84.3000030518,7.76000022888,7.90999984741,1.5,12.5600004196
"2002-10-08 01:00:00",19.4099998474,0.00200000009499,81.0999984741,7.46000003815,8.25,1.89999997616,12.5399999619
"2002-10-08 02:00:00",19.0400009155,0.00200000009499,79.5999984741,7.36999988556,8.25,1.70000004768,12.5200004578
"2002-10-08 03:00:00",18.5699996948,0.00200000009499,67.8000030518,6.34000015259,7.98999977112,1.70000004768,12.5
"2002-10-08 04:00:00",18.1900005341,0.00200000009499,74.3000030518,7.0,7.82000017166,2.09999990463,12.4799995422
"2002-10-08 05:00:00",16.9200000763,0.00200000009499,70.0,6.78000020981,7.78999996185,1.70000004768,12.470000267
"2002-10-08 06:00:00",16.5900001526,0.0010000000475,62.2000007629,6.05999994278,7.67000007629,1.70000004768,12.4499998093
"2002-10-08 07:00:00",16.5799999237,0.0,60.7999992371,5.92999982834,7.73000001907,1.70000004768,12.4200000763
"2002-10-08 08:00:00",16.2000007629,0.0,59.0999984741,5.80999994278,7.13999986649,1.39999997616,12.3900003433
"2002-10-08 09:00:00",16.1100006104,0.0,60.2000007629,5.92999982834,6.94999980927,1.5,12.4300003052
"2002-10-08 10:00:00",17.8799991608,0.0,94.3000030518,8.94999980927,8.43999958038,1.79999995232,12.6899995804
"2002-10-08 11:00:00",17.5499992371,0.0,96.8000030518,9.25,8.36999988556,2.29999995232,12.7700004578
"2002-10-08 12:00:00",16.3700008392,0.0,94.0,9.21000003815,7.92000007629,2.5,12.6599998474
"2002-10-08 13:00:00",16.4699993134,0.0,89.8000030518,8.77000045776,7.17999982834,2.59999990463,12.6700000763
"2002-10-08 14:00:00",17.8600006104,0.0,95.4000015259,9.06000041962,8.30000019073,2.5,12.5799999237
"2002-10-08 15:00:00",18.0,0.0,111.599998474,10.5699996948,8.02999973297,2.0,12.5600004196
"2002-10-08 16:00:00",17.7000007629,0.0,102.599998474,9.77000045776,8.18999958038,1.79999995232,12.5
"2002-10-08 17:00:00",17.2099990845,0.0,97.4000015259,9.36999988556,8.21000003815,1.79999995232,12.4499998093
"2002-10-08 18:00:00",17.4099998474,0.0,88.5999984741,8.48999977112,8.14999961853,1.5,12.4099998474
"2002-10-08 19:00:00",16.9899997711,0.0,73.3000030518,7.09000015259,8.11999988556,1.39999997616,12.3999996185
"2002-10-08 20:00:00",16.1599998474,0.0,75.5,7.42000007629,7.94999980927,1.5,12.3900003433
"2002-10-08 21:00:00",17.3600006104,0.0,83.4000015259,8.0,8.19999980927,1.39999997616,12.3900003433
"2002-10-08 22:00:00",16.4899997711,0.0,74.0999984741,7.23999977112,7.90000009537,1.10000002384,12.3699998856
"2002-10-08 23:00:00",16.2099990845,0.0,66.0999984741,6.48999977112,7.96999979019,1.10000002384,12.3699998856
"2002-10-09 00:00:00",15.8599996567,0.0,79.9000015259,7.90999984741,7.92999982834,1.0,12.3699998856
"2002-10-09 01:00:00",15.8900003433,0.0,65.0999984741,6.44000005722,7.90000009537,0.800000011921,12.3599996567
"2002-10-09 02:00:00",16.3999996185,0.0,65.5999984741,6.42000007629,7.90999984741,1.10000002384,12.3500003815
"2002-10-09 03:00:00",16.0900001526,0.0,59.7999992371,5.88999986649,7.86000013351,0.899999976158,12.3500003815
"2002-10-09 04:00:00",16.2199993134,0.0,61.0,5.98999977112,7.92000007629,1.0,12.3500003815
"2002-10-09 05:00:00",15.4899997711,0.0,74.0,7.38000011444,7.86000013351,1.5,12.3400001526
"2002-10-09 06:00:00",15.3500003815,0.0,76.9000015259,7.69999980927,7.90000009537,1.10000002384,12.3299999237
"2002-10-09 07:00:00",15.5900001526,0.0,72.0999984741,7.17999982834,8.05000019073,1.10000002384,12.3299999237
"2002-10-09 08:00:00",16.7099990845,0.0,72.0999984741,7.01000022888,8.09000015259,1.10000002384,12.3199996948
"2002-10-09 09:00:00",16.8899993896,0.190999999642,102.599998474,9.93999958038,7.86999988556,2.0,12.3299999237
"2002-10-09 10:00:00",16.8799991608,0.00300000002608,109.599998474,10.6199998856,7.94999980927,2.40000009537,12.5600004196